AAL981 KCLT-KPBI

Flight info

Callsign AAL981
Flight time 1h 28m
Altitude 32000
Route ICONS5 NOOKS WURFL Q83 JEVED Q97 KENLL CPTAN3
Aircraft A321/M-SDE3FGHIRWY/LB1

Departure

Time 2026-05-04 02:28
Airport Charlotte Douglas International Airport (KCLT)

Arrival

Time 2026-05-04 03:56
Airport Palm Beach International Airport (KPBI)
Time Latitude Longitude Altitude Speed Heading
2026-05-04 01:49 35.21766 -80.94171 733 ft 0 kts 317°
2026-05-04 02:13 35.21765 -80.94170 732 ft 2 kts 317°
2026-05-04 02:13 35.21747 -80.94149 732 ft 3 kts 318°
2026-05-04 02:13 35.21731 -80.94135 732 ft 4 kts 358°
2026-05-04 02:13 35.21710 -80.94145 732 ft 4 kts 47°
2026-05-04 02:14 35.21694 -80.94168 732 ft 2 kts 48°
2026-05-04 02:14 35.21693 -80.94169 732 ft 0 kts 48°
2026-05-04 02:21 35.21694 -80.94167 732 ft 1 kts 48°
2026-05-04 02:21 35.21711 -80.94142 732 ft 5 kts 56°
2026-05-04 02:22 35.21726 -80.94098 732 ft 6 kts 71°
2026-05-04 02:22 35.21744 -80.94040 732 ft 8 kts 68°
2026-05-04 02:22 35.21779 -80.93980 731 ft 9 kts 48°
2026-05-04 02:22 35.21826 -80.93916 732 ft 11 kts 48°
2026-05-04 02:23 35.21878 -80.93845 731 ft 12 kts 48°
2026-05-04 02:23 35.21935 -80.93767 732 ft 11 kts 48°
2026-05-04 02:23 35.21982 -80.93720 733 ft 9 kts 19°
2026-05-04 02:23 35.22049 -80.93718 733 ft 10 kts 355°
2026-05-04 02:24 35.22124 -80.93724 733 ft 11 kts 356°
2026-05-04 02:24 35.22206 -80.93731 733 ft 13 kts 356°
2026-05-04 02:24 35.22297 -80.93739 733 ft 14 kts 356°
2026-05-04 02:24 35.22384 -80.93746 733 ft 9 kts 356°
2026-05-04 02:25 35.22447 -80.93751 733 ft 7 kts 356°
2026-05-04 02:25 35.22455 -80.93751 733 ft 0 kts 356°
2026-05-04 02:26 35.22457 -80.93752 734 ft 1 kts 356°
2026-05-04 02:26 35.22496 -80.93734 733 ft 6 kts 48°
2026-05-04 02:27 35.22505 -80.93690 735 ft 5 kts 86°
2026-05-04 02:27 35.22505 -80.93662 735 ft 5 kts 96°
2026-05-04 02:27 35.22480 -80.93623 735 ft 4 kts 151°
2026-05-04 02:27 35.22445 -80.93618 736 ft 7 kts 175°
2026-05-04 02:28 35.22387 -80.93613 736 ft 28 kts 175°
2026-05-04 02:28 35.21929 -80.93572 737 ft 101 kts 176°
2026-05-04 02:28 35.20653 -80.93462 853 ft 162 kts 176°
2026-05-04 02:28 35.19552 -80.93351 1619 ft 157 kts 176°
2026-05-04 02:29 35.18474 -80.93193 2335 ft 160 kts 176°
2026-05-04 02:29 35.17322 -80.92985 2695 ft 178 kts 175°
2026-05-04 02:29 35.16464 -80.92826 2869 ft 192 kts 175°
2026-05-04 02:29 35.15104 -80.92635 3143 ft 207 kts 184°
2026-05-04 02:30 35.13616 -80.92910 3382 ft 228 kts 191°
2026-05-04 02:30 35.11957 -80.93157 3743 ft 250 kts 187°
2026-05-04 02:30 35.10194 -80.93334 4381 ft 259 kts 187°
2026-05-04 02:30 35.07774 -80.93559 5330 ft 268 kts 187°
2026-05-04 02:31 35.05901 -80.93728 6095 ft 272 kts 186°
2026-05-04 02:31 35.04619 -80.93846 6597 ft 275 kts 187°
2026-05-04 02:31 35.02706 -80.94040 7365 ft 277 kts 188°
2026-05-04 02:31 35.00750 -80.94263 7944 ft 288 kts 188°
2026-05-04 02:32 34.98072 -80.94597 8856 ft 295 kts 188°
2026-05-04 02:32 34.96714 -80.94768 9319 ft 298 kts 189°
2026-05-04 02:32 34.94631 -80.95025 10015 ft 304 kts 188°
2026-05-04 02:32 34.92480 -80.95281 10398 ft 320 kts 188°
2026-05-04 02:33 34.90205 -80.95540 10735 ft 335 kts 188°
2026-05-04 02:33 34.87852 -80.95801 11291 ft 343 kts 188°
2026-05-04 02:33 34.85463 -80.96060 11967 ft 346 kts 188°
2026-05-04 02:33 34.83090 -80.96317 12699 ft 348 kts 188°
2026-05-04 02:34 34.80672 -80.96582 13421 ft 350 kts 188°
2026-05-04 02:34 34.78235 -80.96819 14111 ft 353 kts 187°
2026-05-04 02:34 34.75769 -80.96949 14729 ft 356 kts 185°
2026-05-04 02:34 34.73282 -80.97014 15338 ft 359 kts 185°
2026-05-04 02:35 34.70770 -80.97054 15932 ft 362 kts 185°
2026-05-04 02:35 34.68238 -80.97092 16539 ft 366 kts 185°
2026-05-04 02:35 34.65686 -80.97146 17137 ft 368 kts 186°
2026-05-04 02:35 34.63117 -80.97214 17789 ft 370 kts 186°
2026-05-04 02:36 34.60536 -80.97322 17989 ft 384 kts 187°
2026-05-04 02:36 34.57822 -80.97540 18140 ft 398 kts 188°
2026-05-04 02:36 34.55033 -80.97826 18523 ft 405 kts 189°
2026-05-04 02:36 34.52213 -80.98132 19010 ft 409 kts 189°
2026-05-04 02:37 34.49369 -80.98434 19531 ft 411 kts 189°
2026-05-04 02:37 34.46514 -80.98727 20045 ft 413 kts 189°
2026-05-04 02:37 34.43637 -80.99007 20580 ft 416 kts 189°
2026-05-04 02:37 34.40747 -80.99281 21068 ft 418 kts 189°
2026-05-04 02:38 34.37839 -80.99548 21568 ft 420 kts 188°
2026-05-04 02:38 34.34960 -80.99810 22049 ft 422 kts 188°
2026-05-04 02:38 34.32024 -81.00083 22509 ft 424 kts 188°
2026-05-04 02:38 34.29073 -81.00357 22960 ft 427 kts 188°
2026-05-04 02:39 34.26104 -81.00632 23419 ft 429 kts 189°
2026-05-04 02:39 34.23119 -81.00909 23835 ft 432 kts 189°
2026-05-04 02:39 34.20118 -81.01186 24209 ft 434 kts 188°
2026-05-04 02:39 34.17099 -81.01465 24580 ft 436 kts 188°
2026-05-04 02:40 34.14071 -81.01747 24934 ft 438 kts 188°
2026-05-04 02:40 34.11026 -81.02034 25315 ft 440 kts 188°
2026-05-04 02:40 34.08010 -81.02321 25690 ft 441 kts 188°
2026-05-04 02:40 34.04943 -81.02612 26068 ft 443 kts 188°
2026-05-04 02:41 34.01861 -81.02900 26435 ft 445 kts 188°
2026-05-04 02:41 33.98770 -81.03183 26789 ft 447 kts 188°
2026-05-04 02:41 33.95653 -81.03365 27148 ft 450 kts 186°
2026-05-04 02:41 33.92512 -81.03397 27506 ft 453 kts 184°
2026-05-04 02:42 33.89353 -81.03326 27858 ft 455 kts 183°
2026-05-04 02:42 33.86183 -81.03215 28228 ft 455 kts 183°
2026-05-04 02:42 33.83015 -81.03109 28613 ft 456 kts 183°
2026-05-04 02:42 33.79899 -81.03031 29094 ft 453 kts 184°
2026-05-04 02:43 33.76758 -81.02979 29599 ft 450 kts 184°
2026-05-04 02:43 33.73633 -81.02947 30102 ft 448 kts 185°
2026-05-04 02:43 33.70527 -81.02927 30530 ft 446 kts 185°
2026-05-04 02:43 33.67432 -81.02911 30940 ft 444 kts 185°
2026-05-04 02:44 33.64353 -81.02895 31339 ft 442 kts 185°
2026-05-04 02:44 33.61287 -81.02878 31728 ft 439 kts 186°
2026-05-04 02:44 33.58239 -81.02855 32044 ft 437 kts 186°
2026-05-04 02:44 33.55213 -81.02830 32115 ft 432 kts 186°
2026-05-04 02:45 33.49285 -81.02769 32120 ft 428 kts 186°
2026-05-04 02:45 33.43335 -81.02714 32134 ft 427 kts 186°
2026-05-04 02:46 33.37389 -81.02665 32131 ft 428 kts 186°
2026-05-04 02:46 33.31455 -81.02608 32133 ft 425 kts 186°
2026-05-04 02:47 33.25589 -81.02552 32130 ft 424 kts 186°
2026-05-04 02:47 33.19681 -81.02500 32129 ft 425 kts 186°
2026-05-04 02:48 33.13773 -81.02439 32133 ft 424 kts 186°
2026-05-04 02:48 33.07911 -81.02383 32129 ft 425 kts 186°
2026-05-04 02:49 33.01997 -81.02322 32142 ft 425 kts 186°
2026-05-04 02:49 32.96085 -81.02271 32144 ft 425 kts 186°
2026-05-04 02:50 32.90182 -81.02227 32142 ft 424 kts 186°
2026-05-04 02:50 32.84316 -81.02178 32144 ft 424 kts 186°
2026-05-04 02:51 32.78414 -81.02123 32136 ft 424 kts 186°
2026-05-04 02:51 32.72523 -81.02064 32143 ft 423 kts 186°
2026-05-04 02:52 32.66641 -81.02011 32149 ft 423 kts 186°
2026-05-04 02:52 32.60765 -81.01964 32154 ft 422 kts 186°
2026-05-04 02:53 32.54930 -81.01916 32128 ft 422 kts 187°
2026-05-04 02:53 32.49070 -81.01900 32150 ft 420 kts 187°
2026-05-04 02:54 32.43240 -81.02018 32156 ft 419 kts 188°
2026-05-04 02:54 32.37412 -81.02160 32155 ft 418 kts 188°
2026-05-04 02:55 32.28722 -81.02322 32142 ft 418 kts 188°
2026-05-04 02:56 32.22901 -81.02424 32155 ft 418 kts 188°
2026-05-04 02:56 32.17088 -81.02528 32155 ft 418 kts 188°
2026-05-04 02:57 32.11275 -81.02629 32128 ft 418 kts 188°
2026-05-04 02:57 32.05506 -81.02728 32127 ft 417 kts 188°
2026-05-04 02:58 31.99702 -81.02834 32091 ft 417 kts 188°
2026-05-04 02:58 31.93909 -81.02973 32114 ft 416 kts 188°
2026-05-04 02:59 31.88125 -81.03145 32121 ft 416 kts 188°
2026-05-04 02:59 31.82338 -81.03312 32126 ft 416 kts 188°
2026-05-04 03:00 31.76597 -81.03467 32125 ft 416 kts 188°
2026-05-04 03:00 31.70818 -81.03624 32113 ft 415 kts 188°
2026-05-04 03:01 31.65043 -81.03775 32128 ft 415 kts 188°
2026-05-04 03:01 31.59264 -81.03935 32136 ft 415 kts 189°
2026-05-04 03:02 31.53545 -81.04208 32137 ft 413 kts 191°
2026-05-04 03:02 31.47805 -81.04622 32106 ft 413 kts 191°
2026-05-04 03:03 31.42065 -81.05028 32123 ft 413 kts 191°
2026-05-04 03:03 31.36317 -81.05404 32122 ft 415 kts 191°
2026-05-04 03:04 31.30580 -81.05762 32132 ft 416 kts 191°
2026-05-04 03:04 31.24796 -81.06128 32135 ft 417 kts 190°
2026-05-04 03:05 31.18987 -81.06338 32122 ft 419 kts 189°
2026-05-04 03:05 31.13130 -81.06402 32142 ft 421 kts 188°
2026-05-04 03:06 31.07272 -81.06477 32147 ft 421 kts 188°
2026-05-04 03:06 31.01462 -81.06594 32147 ft 420 kts 189°
2026-05-04 03:07 30.95620 -81.06720 32149 ft 420 kts 189°
2026-05-04 03:07 30.89774 -81.06847 32118 ft 420 kts 189°
2026-05-04 03:08 30.83924 -81.06968 32125 ft 421 kts 189°
2026-05-04 03:08 30.78107 -81.07084 32132 ft 421 kts 189°
2026-05-04 03:09 30.72249 -81.07199 32137 ft 421 kts 189°
2026-05-04 03:09 30.66386 -81.07320 32143 ft 421 kts 189°
2026-05-04 03:10 30.60528 -81.07460 32110 ft 420 kts 190°
2026-05-04 03:10 30.54696 -81.07796 32124 ft 419 kts 192°
2026-05-04 03:11 30.48912 -81.08211 32128 ft 420 kts 192°
2026-05-04 03:11 30.43079 -81.08596 32135 ft 420 kts 191°
2026-05-04 03:12 30.37238 -81.08936 32139 ft 420 kts 191°
2026-05-04 03:12 30.31393 -81.09279 32137 ft 421 kts 191°
2026-05-04 03:13 30.25546 -81.09632 32144 ft 421 kts 191°
2026-05-04 03:13 30.19738 -81.09981 32153 ft 421 kts 191°
2026-05-04 03:14 30.13892 -81.10330 32160 ft 421 kts 191°
2026-05-04 03:14 30.08047 -81.10684 32126 ft 421 kts 192°
2026-05-04 03:15 30.02203 -81.11034 32138 ft 421 kts 191°
2026-05-04 03:15 29.96390 -81.11374 32147 ft 421 kts 191°
2026-05-04 03:16 29.90540 -81.11720 32155 ft 421 kts 192°
2026-05-04 03:16 29.84691 -81.12069 32153 ft 421 kts 192°
2026-05-04 03:17 29.78827 -81.12355 32120 ft 423 kts 190°
2026-05-04 03:17 29.72963 -81.12382 32118 ft 425 kts 189°
2026-05-04 03:18 29.67046 -81.12333 32122 ft 425 kts 189°
2026-05-04 03:18 29.61134 -81.12333 32122 ft 425 kts 189°
2026-05-04 03:19 29.55167 -81.11410 32124 ft 447 kts 172°
2026-05-04 03:19 29.49264 -81.08980 32132 ft 451 kts 170°
2026-05-04 03:20 29.43394 -81.06542 32146 ft 452 kts 171°
2026-05-04 03:20 29.37476 -81.04097 32128 ft 452 kts 171°
2026-05-04 03:21 29.31561 -81.01647 32126 ft 452 kts 170°
2026-05-04 03:21 29.25648 -80.99201 32147 ft 452 kts 171°
2026-05-04 03:22 29.19772 -80.96787 32119 ft 452 kts 171°
2026-05-04 03:22 29.13858 -80.94351 32113 ft 452 kts 171°
2026-05-04 03:23 29.07942 -80.91919 32122 ft 452 kts 171°
2026-05-04 03:23 29.02029 -80.89499 32120 ft 451 kts 171°
2026-05-04 03:24 28.96126 -80.87083 32128 ft 450 kts 171°
2026-05-04 03:24 28.90271 -80.84686 32096 ft 450 kts 171°
2026-05-04 03:25 28.84383 -80.82274 32109 ft 450 kts 172°
2026-05-04 03:25 28.78492 -80.79868 32095 ft 449 kts 171°
2026-05-04 03:26 28.72610 -80.77472 32095 ft 449 kts 172°
2026-05-04 03:26 28.66724 -80.75079 32095 ft 449 kts 172°
2026-05-04 03:27 28.60879 -80.72697 32053 ft 449 kts 172°
2026-05-04 03:27 28.54995 -80.70307 32064 ft 449 kts 172°
2026-05-04 03:28 28.49104 -80.67912 32067 ft 450 kts 171°
2026-05-04 03:28 28.43212 -80.65513 32072 ft 450 kts 172°
2026-05-04 03:29 28.37316 -80.63133 32080 ft 449 kts 172°
2026-05-04 03:29 28.31434 -80.60763 31680 ft 454 kts 171°
2026-05-04 03:29 28.28452 -80.59560 31433 ft 456 kts 171°
2026-05-04 03:30 28.25459 -80.58354 31197 ft 457 kts 171°
2026-05-04 03:30 28.22456 -80.57144 30420 ft 461 kts 170°
2026-05-04 03:30 28.19405 -80.55920 29344 ft 467 kts 170°
2026-05-04 03:30 28.16339 -80.54684 28369 ft 469 kts 169°
2026-05-04 03:31 28.13276 -80.53441 27729 ft 463 kts 169°
2026-05-04 03:31 28.10263 -80.52212 27112 ft 458 kts 169°
2026-05-04 03:31 28.07277 -80.50998 26452 ft 454 kts 169°
2026-05-04 03:31 28.04314 -80.49800 25821 ft 449 kts 169°
2026-05-04 03:32 28.01383 -80.48621 25200 ft 444 kts 169°
2026-05-04 03:32 27.98525 -80.47474 24581 ft 440 kts 169°
2026-05-04 03:32 27.95671 -80.46329 24247 ft 429 kts 169°
2026-05-04 03:32 27.92913 -80.45215 24123 ft 413 kts 169°
2026-05-04 03:33 27.90260 -80.44140 23980 ft 397 kts 169°
2026-05-04 03:33 27.87695 -80.43103 23288 ft 387 kts 170°
2026-05-04 03:33 27.85382 -80.42181 22653 ft 386 kts 170°
2026-05-04 03:33 27.84616 -80.41878 22487 ft 385 kts 170°
2026-05-04 03:34 27.82089 -80.40880 21943 ft 384 kts 169°
2026-05-04 03:34 27.79567 -80.39882 21429 ft 382 kts 169°
2026-05-04 03:34 27.77114 -80.38901 20875 ft 377 kts 169°
2026-05-04 03:34 27.74649 -80.37914 20335 ft 376 kts 169°
2026-05-04 03:35 27.72185 -80.36931 19779 ft 375 kts 169°
2026-05-04 03:35 27.69729 -80.35953 19268 ft 373 kts 168°
2026-05-04 03:35 27.67292 -80.34979 18743 ft 371 kts 168°
2026-05-04 03:35 27.64898 -80.33852 18159 ft 376 kts 162°
2026-05-04 03:36 27.62542 -80.32599 17547 ft 371 kts 162°
2026-05-04 03:36 27.60244 -80.31374 17041 ft 369 kts 162°
2026-05-04 03:36 27.57930 -80.30146 16501 ft 367 kts 162°
2026-05-04 03:36 27.55628 -80.28933 15994 ft 365 kts 161°
2026-05-04 03:37 27.53336 -80.27727 15465 ft 362 kts 161°
2026-05-04 03:37 27.51065 -80.26530 14958 ft 359 kts 161°
2026-05-04 03:37 27.48805 -80.25339 14445 ft 358 kts 161°
2026-05-04 03:37 27.46552 -80.24154 13939 ft 357 kts 161°
2026-05-04 03:38 27.44308 -80.22980 13433 ft 354 kts 160°
2026-05-04 03:38 27.42097 -80.21813 12870 ft 349 kts 160°
2026-05-04 03:38 27.39907 -80.20657 12379 ft 346 kts 160°
2026-05-04 03:38 27.37737 -80.19513 11894 ft 344 kts 160°
2026-05-04 03:39 27.35578 -80.18377 11408 ft 342 kts 160°
2026-05-04 03:39 27.33455 -80.17262 10930 ft 340 kts 159°
2026-05-04 03:39 27.31326 -80.16142 10658 ft 332 kts 159°
2026-05-04 03:39 27.29274 -80.15062 10531 ft 320 kts 159°
2026-05-04 03:40 27.27299 -80.14019 10412 ft 308 kts 160°
2026-05-04 03:40 27.25384 -80.13012 10199 ft 301 kts 160°
2026-05-04 03:40 27.23483 -80.12055 9878 ft 299 kts 161°
2026-05-04 03:40 27.21577 -80.11134 9469 ft 298 kts 161°
2026-05-04 03:41 27.19677 -80.10228 9074 ft 297 kts 161°
2026-05-04 03:41 27.17800 -80.09335 8697 ft 296 kts 160°
2026-05-04 03:41 27.15922 -80.08440 8288 ft 291 kts 160°
2026-05-04 03:41 27.14072 -80.07554 7926 ft 288 kts 160°
2026-05-04 03:42 27.12236 -80.06663 7553 ft 287 kts 159°
2026-05-04 03:42 27.10404 -80.05764 7165 ft 287 kts 158°
2026-05-04 03:42 27.08572 -80.04858 6780 ft 288 kts 157°
2026-05-04 03:42 27.06754 -80.03955 6453 ft 285 kts 157°
2026-05-04 03:43 27.04946 -80.03055 5995 ft 283 kts 157°
2026-05-04 03:43 27.03153 -80.02163 5619 ft 281 kts 157°
2026-05-04 03:43 27.01381 -80.01282 5241 ft 278 kts 156°
2026-05-04 03:43 26.99651 -80.00427 4871 ft 273 kts 156°
2026-05-04 03:44 26.97902 -79.99593 4498 ft 273 kts 161°
2026-05-04 03:44 26.96044 -79.99234 4134 ft 273 kts 179°
2026-05-04 03:44 26.94194 -79.99583 3985 ft 268 kts 198°
2026-05-04 03:44 26.92536 -80.00565 3986 ft 273 kts 216°
2026-05-04 03:45 26.91028 -80.01866 4006 ft 273 kts 217°
2026-05-04 03:45 26.89528 -80.03158 3997 ft 272 kts 216°
2026-05-04 03:45 26.88025 -80.04450 4000 ft 274 kts 216°
2026-05-04 03:45 26.86512 -80.05740 4007 ft 274 kts 217°
2026-05-04 03:46 26.84999 -80.07028 3995 ft 270 kts 216°
2026-05-04 03:46 26.83573 -80.08258 3995 ft 255 kts 215°
2026-05-04 03:46 26.82224 -80.09438 4003 ft 238 kts 219°
2026-05-04 03:46 26.81151 -80.10762 4000 ft 227 kts 239°
2026-05-04 03:47 26.80567 -80.12384 4027 ft 225 kts 258°
2026-05-04 03:47 26.80406 -80.14129 4008 ft 226 kts 266°
2026-05-04 03:47 26.80286 -80.15879 4001 ft 226 kts 265°
2026-05-04 03:47 26.80152 -80.17629 4011 ft 225 kts 265°
2026-05-04 03:48 26.80005 -80.19369 4011 ft 224 kts 265°
2026-05-04 03:48 26.79895 -80.21112 4009 ft 225 kts 270°
2026-05-04 03:48 26.79904 -80.22864 4010 ft 225 kts 271°
2026-05-04 03:48 26.79939 -80.24593 4007 ft 225 kts 272°
2026-05-04 03:49 26.79996 -80.26340 3969 ft 223 kts 272°
2026-05-04 03:49 26.80055 -80.28072 3589 ft 223 kts 272°
2026-05-04 03:49 26.80108 -80.29810 3195 ft 224 kts 272°
2026-05-04 03:49 26.80160 -80.31547 3009 ft 225 kts 272°
2026-05-04 03:50 26.79894 -80.33264 3009 ft 227 kts 243°
2026-05-04 03:50 26.78843 -80.34557 3008 ft 227 kts 209°
2026-05-04 03:50 26.77339 -80.35000 3013 ft 226 kts 179°
2026-05-04 03:50 26.75771 -80.34904 3013 ft 226 kts 173°
2026-05-04 03:51 26.74210 -80.34711 3008 ft 225 kts 167°
2026-05-04 03:51 26.72819 -80.34019 3019 ft 223 kts 146°
2026-05-04 03:51 26.71631 -80.32929 3011 ft 221 kts 134°
2026-05-04 03:51 26.70551 -80.31706 3014 ft 221 kts 133°
2026-05-04 03:52 26.69575 -80.30407 3001 ft 211 kts 118°
2026-05-04 03:52 26.69112 -80.28944 3005 ft 194 kts 97°
2026-05-04 03:52 26.69028 -80.27461 2912 ft 189 kts 92°
2026-05-04 03:52 26.68969 -80.26009 2704 ft 186 kts 92°
2026-05-04 03:53 26.68909 -80.24600 2466 ft 183 kts 91°
2026-05-04 03:53 26.68850 -80.23187 2233 ft 181 kts 92°
2026-05-04 03:53 26.68790 -80.21780 2002 ft 181 kts 91°
2026-05-04 03:53 26.68731 -80.20422 1790 ft 165 kts 91°
2026-05-04 03:54 26.68679 -80.19217 1567 ft 148 kts 91°
2026-05-04 03:54 26.68632 -80.18094 1377 ft 143 kts 90°
2026-05-04 03:54 26.68585 -80.17002 1197 ft 140 kts 90°
2026-05-04 03:54 26.68540 -80.15925 1001 ft 137 kts 92°
2026-05-04 03:55 26.68494 -80.14840 831 ft 140 kts 90°
2026-05-04 03:55 26.68447 -80.13772 650 ft 138 kts 90°
2026-05-04 03:55 26.68404 -80.12696 418 ft 142 kts 90°
2026-05-04 03:55 26.68360 -80.11595 253 ft 143 kts 92°
2026-05-04 03:56 26.68306 -80.10496 59 ft 140 kts 91°
2026-05-04 03:56 26.68268 -80.09494 22 ft 113 kts 94°
2026-05-04 03:56 26.68234 -80.08802 22 ft 63 kts 92°
2026-05-04 03:56 26.68215 -80.08440 22 ft 27 kts 94°
2026-05-04 03:57 26.68210 -80.08271 22 ft 18 kts 91°
2026-05-04 03:57 26.68220 -80.08174 24 ft 11 kts 49°
2026-05-04 03:57 26.68293 -80.08161 22 ft 9 kts 347°
2026-05-04 03:57 26.68317 -80.08224 22 ft 10 kts 272°
2026-05-04 03:58 26.68325 -80.08411 22 ft 14 kts 273°
2026-05-04 03:58 26.68330 -80.08516 22 ft 14 kts 272°
2026-05-04 03:58 26.68334 -80.08606 22 ft 11 kts 273°
2026-05-04 03:59 26.68338 -80.08697 22 ft 13 kts 273°
2026-05-04 03:59 26.68342 -80.08802 22 ft 14 kts 273°
2026-05-04 03:59 26.68348 -80.08919 22 ft 16 kts 273°
2026-05-04 03:59 26.68354 -80.09048 22 ft 17 kts 273°
2026-05-04 04:00 26.68360 -80.09183 22 ft 17 kts 272°
2026-05-04 04:00 26.68364 -80.09282 22 ft 12 kts 273°
2026-05-04 04:00 26.68405 -80.09364 23 ft 11 kts 311°
2026-05-04 04:00 26.68472 -80.09370 22 ft 11 kts 36°
2026-05-04 04:01 26.68529 -80.09300 24 ft 13 kts 49°
2026-05-04 04:01 26.68577 -80.09242 22 ft 6 kts 46°
2026-05-04 04:01 26.68579 -80.09240 22 ft 0 kts 46°
2026-05-04 04:01 26.68581 -80.09238 24 ft 1 kts 46°
2026-05-04 04:02 26.68591 -80.09234 22 ft 2 kts
2026-05-04 04:02 26.68606 -80.09243 22 ft 4 kts 330°
2026-05-04 04:02 26.68631 -80.09265 23 ft 6 kts 319°
2026-05-04 04:02 26.68645 -80.09279 22 ft 0 kts 318°